Baltimore, MD

11:03 PM EDT on August 23, 2019 (GMT -0400)
Baltimore-Washington International

Weather History for KBWI - July, 2019

Change the Weather History Date:

Monday, July 22, 2019

  Actual Average Record
Temperature  
Mean Temperature 85 °F 77 °F  
Max Temperature 96 °F 87 °F 106 °F (2011)
Min Temperature 73 °F 67 °F 53 °F (1966)
Degree Days  
Heating Degree Days 0 0  
Month to date heating degree days 0 0  
Since 1 June heating degree days 4 15  
Since 1 July heating degree days 0 0  
Cooling Degree Days 20 12  
Month to date cooling degree days 369 262  
Year to date cooling degree days 886 584  
Since 1 June cooling degree days 692 500  
Growing Degree Days 34 (Base 50)    
Moisture  
Dew Point 70 °F    
Average Humidity 67    
Maximum Humidity 87    
Minimum Humidity 46    
Precipitation  
Precipitation 0.11 in 0.13 in 3.99 in (1906)
Month to date precipitation 3.27 2.85  
Year to date precipitation 24.12 23.34  
Snow  
Snow 0.00 in 0.00 in - ()
Month to date snowfall 0.0 0.0  
Since 1 July snowfall 0.0 0.0  
Snow Depth 0.00 in    
Sea Level Pressure  
Sea Level Pressure 29.81 in    
Wind  
Wind Speed 5 mph (WSW)    
Max Wind Speed 22 mph    
Max Gust Speed 33 mph    
Visibility 10 miles    
Events Rain , Thunderstorm    
T = Trace of Precipitation, MM = Missing Value Source: NWS Daily Summary

Daily Weather History Graph

Daily Weather History Graph

Search for Another Location

Airport or City:

Astronomy

Jul. 22, 2019 Rise Set
Actual Time 5:58 AM EDT 8:27 PM EDT
Civil Twilight 5:27 AM EDT 8:58 PM EDT
Nautical Twilight 4:49 AM EDT 9:36 PM EDT
Astronomical Twilight 4:06 AM EDT 10:18 PM EDT
Moon 11:49 PM EDT (7/22) 11:10 AM EDT (7/22)
Length of Visible Light 15h 30m
Length of Day
14h 29m
Waning Gibbous, 72% of the Moon is Illuminated
Jul 22
Waning Gibbous
Jul 24
Last Quarter
Jul 31
New
Aug 7
First Quarter
Aug 15
Full

Hourly Weather History & Observations

Time (EDT) Temp. Heat Index Dew Point Humidity Pressure Visibility Wind Dir Wind Speed Gust Speed Precip Events Conditions
12:54 AM 80.1 °F 82.9 °F 69.1 °F 69% 29.88 in 10.0 mi WSW 6.9 mph - N/A   Overcast
1:54 AM 80.1 °F 83.2 °F 70.0 °F 71% 29.88 in 10.0 mi SSW 4.6 mph - N/A   Overcast
2:54 AM 78.1 °F - 70.0 °F 76% 29.87 in 10.0 mi Calm Calm - N/A   Mostly Cloudy
3:54 AM 77.0 °F - 70.0 °F 79% 29.86 in 10.0 mi Calm Calm - N/A   Scattered Clouds
4:54 AM 75.0 °F - 70.0 °F 84% 29.87 in 10.0 mi North 3.5 mph - N/A   Scattered Clouds
5:54 AM 73.9 °F - 70.0 °F 87% 29.86 in 10.0 mi Calm Calm - N/A   Scattered Clouds
6:54 AM 75.9 °F - 71.1 °F 85% 29.86 in 10.0 mi Calm Calm - N/A   Scattered Clouds
7:54 AM 81.0 °F 84.4 °F 70.0 °F 69% 29.86 in 10.0 mi West 3.5 mph - N/A   Partly Cloudy
8:54 AM 84.0 °F 87.8 °F 69.1 °F 61% 29.85 in 10.0 mi Calm Calm - N/A   Partly Cloudy
9:54 AM 87.1 °F 92.0 °F 70.0 °F 57% 29.84 in 10.0 mi South 3.5 mph - N/A   Scattered Clouds
10:54 AM 89.1 °F 93.7 °F 69.1 °F 52% 29.83 in 10.0 mi South 4.6 mph - N/A   Scattered Clouds
11:54 AM 91.9 °F 96.9 °F 69.1 °F 47% 29.82 in 10.0 mi West 8.1 mph - N/A   Partly Cloudy
12:54 PM 93.9 °F 100.3 °F 70.0 °F 46% 29.79 in 10.0 mi SSW 9.2 mph - N/A   Scattered Clouds
1:54 PM 93.9 °F 100.8 °F 71.1 °F 47% 29.76 in 10.0 mi SW 9.2 mph - N/A   Scattered Clouds
2:54 PM 93.0 °F 99.0 °F 70.0 °F 47% 29.74 in 10.0 mi SW 10.4 mph - N/A   Mostly Cloudy
3:48 PM 89.6 °F 99.8 °F 75.2 °F 62% 29.74 in 9.0 mi WSW 8.1 mph - 0.05 in Rain , Thunderstorm Thunderstorms and Rain
3:54 PM 86.0 °F 95.1 °F 75.0 °F 70% 29.76 in 6.0 mi SW 12.7 mph 21.9 mph 0.06 in Rain , Thunderstorm Light Thunderstorms and Rain
4:14 PM 78.8 °F - 71.6 °F 78% 29.77 in 10.0 mi WNW 19.6 mph 25.3 mph 0.01 in   Mostly Cloudy
4:54 PM 79.0 °F - 70.0 °F 74% 29.74 in 10.0 mi West 12.7 mph 20.7 mph 0.01 in   Mostly Cloudy
5:54 PM 80.1 °F 83.2 °F 70.0 °F 71% 29.75 in 10.0 mi WNW 8.1 mph - N/A   Mostly Cloudy
6:54 PM 79.0 °F - 70.0 °F 74% 29.76 in 10.0 mi West 8.1 mph - N/A   Overcast
7:54 PM 81.0 °F 84.9 °F 71.1 °F 72% 29.77 in 10.0 mi WSW 5.8 mph - N/A   Mostly Cloudy
8:54 PM 80.1 °F 83.6 °F 71.1 °F 74% 29.77 in 10.0 mi Calm Calm - N/A   Mostly Cloudy
9:54 PM 75.0 °F - 69.1 °F 82% 29.76 in 10.0 mi SSW 4.6 mph - 0.04 in   Mostly Cloudy
10:54 PM 75.0 °F - 70.0 °F 84% 29.79 in 10.0 mi West 11.5 mph - N/A   Mostly Cloudy
11:54 PM 73.0 °F - 70.0 °F 90% 29.79 in 10.0 mi WNW 3.5 mph - N/A   Mostly Cloudy